[Iaude] MPEC X108: 2019 WV6 [a=3.26,e=0.58,i=12.4,H=19.6]

mpec at marsden.cfa.harvard.edu mpec at marsden.cfa.harvard.edu
Wed Dec 11 12:12:12 EST 2019


M.P.E.C. 2019-X108                            Issued 2019 December 11, 17:10 UT

     The Minor Planet Electronic Circulars contain information on unusual
         minor planets and routine data on comets.  They are published
    on behalf of Division F of the International Astronomical Union by the
          Minor Planet Center, Smithsonian Astrophysical Observatory,
                          Cambridge, MA 02138, U.S.A.

             Prepared using the Tamkin Foundation Computer Network

                              MPC at CFA.HARVARD.EDU
            URL https://www.minorplanetcenter.net/    ISSN 1523-6714

                                    2019 WV6                                    


Observations:
     K19W06V* S2019 11 29.65106 10 47 23.39 +16 35 19.2          20   RLEX108C51
     K19W06V  s2019 11 29.65106 1 - 6790.1914 -  889.2378 +  382.9364   EX108C51
     K19W06V  S2019 11 29.65119 10 47 23.37 +16 35 18.8                LEX108C51
     K19W06V  s2019 11 29.65119 1 - 6795.8036 -  879.1110 +  299.8397   EX108C51
     K19W06V  S2019 11 29.91274 10 48 06.75 +16 28 26.3                LEX108C51
     K19W06V  s2019 11 29.91274 1 - 6788.2514 -  916.3655 +  353.5527   EX108C51
     K19W06V  S2019 11 30.04364 10 48 28.36 +16 24 56.9                LEX108C51
     K19W06V  s2019 11 30.04364 1 - 6789.8807 -  924.8782 +  297.4655   EX108C51
     K19W06V  S2019 11 30.17391 10 48 49.94 +16 21 29.8                LEX108C51
     K19W06V  s2019 11 30.17391 1 - 6755.9504 -  982.7873 +  656.3520   EX108C51
     K19W06V  S2019 11 30.56687 10 49 54.71 +16 11 04.3                LEX108C51
     K19W06V  s2019 11 30.56687 1 - 6779.6769 -  989.2542 +  322.4213   EX108C51
     K19W06V  S2019 11 30.82855 10 50 37.87 +16 04 06.3                LEX108C51
     K19W06V  s2019 11 30.82855 1 - 6777.0640 - 1016.3533 +  293.2445   EX108C51
     K19W06V  S2019 12 01.02491 10 51 10.01 +15 58 49.7                LEX108C51
     K19W06V  s2019 12 01.02491 1 - 6778.4083 - 1029.0217 +  208.9792   EX108C51
     K19W06V  S2019 12 01.15518 10 51 31.43 +15 55 21.4                LEX108C51
     K19W06V  s2019 12 01.15518 1 - 6748.2078 - 1087.0949 +  568.0291   EX108C51
     K19W06V  S2019 12 01.22114 10 51 42.25 +15 53 37.6                LEX108C51
     K19W06V  s2019 12 01.22114 1 - 6774.9589 - 1051.8530 +  207.8247   EX108C51
     K19W06V  S2019 12 01.48231 10 52 25.04 +15 46 36.7                LEX108C51
     K19W06V  s2019 12 01.48231 1 - 6747.7502 - 1118.6129 +  510.7519   EX108C51
     K19W06V  S2019 12 01.61359 10 52 46.54 +15 43 05.9                LEX108C51
     K19W06V  s2019 12 01.61359 1 - 6767.8360 - 1097.4715 +  205.4345   EX108C51
     K19W06V  S2019 12 01.67904 10 52 57.07 +15 41 21.3                LEX108C51
     K19W06V  s2019 12 01.67904 1 - 6767.9931 - 1101.6560 +  177.2902   EX108C51
     K19W06V  S2019 12 01.94072 10 53 39.90 +15 34 18.6                LEX108C51
     K19W06V  s2019 12 01.94072 1 - 6764.3239 - 1128.6076 +  147.8971   EX108C51
     K19W06V  S2019 12 02.20228 10 54 22.44 +15 27 15.4                LEX108C51
     K19W06V  s2019 12 02.20228 1 - 6756.5817 - 1165.7732 +  201.5765   EX108C51
     K19W06V  S2019 12 02.20240 10 54 22.44 +15 27 16.9                LEX108C51
     K19W06V  s2019 12 02.20240 1 - 6760.4250 - 1155.5134 +  118.4018   EX108C51
     K19W06V KC2019 12 04.65482611 00 58.206+14 20 28.78         22.43GVEX108T12
     K19W06V KC2019 12 04.65972811 00 58.964+14 20 20.75         22.54GVEX108T12
     K19W06V KC2019 12 05.42066911 03 00.24 +13 59 20.5          22.1 VuEX108H21
     K19W06V KC2019 12 05.42675511 03 01.19 +13 59 10.6          21.9 VuEX108H21
     K19W06V KC2019 12 05.42878311 03 01.52 +13 59 07.3          22.1 VuEX108H21
     K19W06V KC2019 12 06.49615 11 05 50.21 +13 29 33.6          21.3 RoEX108291
     K19W06V KC2019 12 06.50268 11 05 51.23 +13 29 22.5          21.5 RoEX108291
     K19W06V KC2019 12 06.50915 11 05 52.21 +13 29 11.6          21.3 RoEX108291
     K19W06V KC2019 12 07.42052811 08 15.17 +13 03 45.2          21.8 VuEX108H21
     K19W06V KC2019 12 07.42661211 08 16.08 +13 03 34.6          22.1 VuEX108H21
     K19W06V |C2019 12 11.33831 11 18 17.31 +11 12 58.5          21.1 GVEX108807
     K19W06V |C2019 12 11.34365 11 18 18.07 +11 12 49.4          21.3 GVEX108807
     K19W06V |C2019 12 11.34859 11 18 18.79 +11 12 41.0          21.0 GVEX108807

Observer details:
291 LPL/Spacewatch II.  Observer A. F. Tubbiolo.  1.8-m f/2.7 reflector + CCD.
807 Cerro Tololo Observatory, La Serena.  Observers T. Linder, R. Holmes.  
    1.00-m f/10.0 astrograph + CCD.
C51 WISE.  Observer Near-Earth Object Wide-field Infrared Survey Explorer.  
    Measurers A. K. Mainzer, J. M. Bauer, T. Grav, J. R. Masiero, R. M. Cutri, 
   J. W. Dailey, E. Kramer, J. Pittichova, S. Sonnett, E. L. Wright.
H21 Astronomical Research Observatory, Westfield.  Observer R. Holmes.  
    Measurers S. Foglia, L. Buzzi, T. Linder, R. Holmes.  0.81-m f/4.0 
   astrograph + CCD, 1.3-m f/4.0 astrograph + CCD.
T12 Mauna Kea-UH/Tholen NEO Follow-Up (2.24-m).  Observer M.-T. Hui.  Measurer 
   D. J. Tholen.  2.24-m f/10.1 reflector + CCD.

Orbital elements:
2019 WV6                                                 Earth MOID = 0.3965 AU
Epoch 2020 May 31.0 TT = JDT 2459000.5                  Veres
M  26.45948              (2000.0)            P               Q
n   0.16725224     Peri.  170.56520     -0.65284430     -0.74474301
a   3.2625319      Node   320.00453     +0.68019052     -0.49595128
e   0.5768937      Incl.   12.43424     +0.33336942     -0.44653126
P   5.89           H   19.6           G   0.15           U   8
Residuals in seconds of arc
191129 C51  0.4-  0.5-    191201 C51  0.9+  0.1-    191205 H21  0.2+  0.3+
191129 C51  1.0-  0.8-    191201 C51  1.4+  0.1-    191206 291  0.0   0.4+
191129 C51  0.1-  1.4+    191201 C51  1.0-  0.7+    191206 291  0.1+  0.1+
191130 C51  0.6-  0.1-    191201 C51  0.9+  0.1-    191206 291  0.1-  0.0
191130 C51  0.2+  0.4+    191202 C51  0.1+  0.6-    191207 H21  0.3+  0.5+
191130 C51  0.3-  0.6+    191202 C51  0.2-  1.0+    191207 H21  0.0   0.1+
191130 C51  1.3+  0.7+    191204 T12  0.0   0.0     191211 807  0.5+  0.1-
191201 C51  0.4-  1.7-    191204 T12  0.1-  0.0     191211 807  0.0   0.0
191201 C51  0.4+  0.7-    191205 H21  0.0   0.1+    191211 807  0.2-  0.0
191201 C51  0.5+  0.9+    191205 H21  0.0   0.3+

Ephemeris:
2019 WV6                 a,e,i = 3.26, 0.58, 12                  q = 1.3804
Date    TT    R. A. (2000) Decl.     Delta      r    Elong.  Phase     V
2019 11 11    09 52 43.7 +24 01 53   1.1480  1.4624    86.0    42.5    22.4
...
2019 11 26    10 37 10.5 +18 10 07   1.0321  1.4168    89.1    44.2    22.1
...
2019 12 04    10 59 13.1 +14 38 27   0.9785  1.3995    90.9    44.8    22.0
...
2019 12 10    11 14 53.4 +11 51 05   0.9418  1.3901    92.3    45.1    21.9
2019 12 11    11 17 25.6 +11 22 35   0.9360  1.3889    92.6    45.1    21.9
2019 12 12    11 19 56.5 +10 53 55   0.9303  1.3877    92.8    45.1    21.9
...
2019 12 18    11 34 33.1 +07 59 06   0.8975  1.3824    94.5    45.2    21.8
...
2019 12 26    11 52 39.5 +04 00 29   0.8578  1.3804    96.9    45.0    21.7
...
2020 01 10    12 21 46.3 -03 31 22   0.7950  1.3920   102.5    43.6    21.5

A. U. Tomatic                (C) Copyright 2019 MPC           M.P.E.C. 2019-X108




More information about the Iaude mailing list